User: anonymous   Login
Location: Acheville
(50.3840°N, 2.8827°E)
Time: 20:17:08
(UTC+00:00)
Language:

NOSS 8 (H) - Orbit

View from above orbital plane
View from above orbital plane
View from above satellite
View from above satellite

Ground track
Ground track

The orbit data is extracted from the following two-line orbital elements,

1 18025U 87043H   22016.84887698  .00003625  00000-0  26471-3 0  9996
2 18025  63.2972  56.2904 0952985  71.3013 298.8948 13.47651092131456
Epoch (UTC): 16 January 2022 20:22:22
Eccentricity: 0.0952985
inclination: 63.2972°
perigee height: 370 km
apogee height: 1792 km
right ascension of ascending node: 56.2904°
argument of perigee: 71.3013°
revolutions per day: 13.47651092
mean anomaly at epoch: 298.8948°
orbit number at epoch: 13145

The dashed part of the orbit path shows where the satellite is in the earth's shadow,  

DLR